TimeCDT,TemperatureF,Dew PointF,Humidity,Sea Level PressureIn,VisibilityMPH,Wind Direction,Wind SpeedMPH,Gust SpeedMPH,PrecipitationIn,Events,Conditions,WindDirDegrees,DateUTC
12:53 AM,23.0,19.9,88,30.17,10.0,Calm,Calm,-,N/A,,Clear,0,2012-10-07 05:53:00
1:53 AM,19.9,18.0,92,30.17,10.0,Calm,Calm,-,N/A,,Clear,0,2012-10-07 06:53:00
2:53 AM,21.9,19.0,89,30.14,10.0,Calm,Calm,-,N/A,,Clear,0,2012-10-07 07:53:00
3:53 AM,21.0,18.0,88,30.12,10.0,Calm,Calm,-,N/A,,Clear,0,2012-10-07 08:53:00
4:53 AM,19.0,17.1,92,30.11,10.0,Calm,Calm,-,N/A,,Clear,0,2012-10-07 09:53:00
5:53 AM,19.9,17.1,89,30.10,10.0,South,3.5,-,N/A,,Clear,190,2012-10-07 10:53:00
6:53 AM,21.0,19.0,92,30.08,10.0,Calm,Calm,-,N/A,,Clear,0,2012-10-07 11:53:00
7:53 AM,23.0,19.9,88,30.07,10.0,South,3.5,-,N/A,,Clear,170,2012-10-07 12:53:00
8:53 AM,28.9,25.0,85,30.06,10.0,South,4.6,-,N/A,,Clear,190,2012-10-07 13:53:00
9:53 AM,35.1,27.0,72,30.03,10.0,Variable,6.9,-,N/A,,Clear,0,2012-10-07 14:53:00
10:53 AM,39.9,24.1,53,30.02,10.0,SSW,5.8,-,N/A,,Scattered Clouds,210,2012-10-07 15:53:00
11:53 AM,44.1,23.0,43,30.01,10.0,WSW,9.2,-,N/A,,Clear,240,2012-10-07 16:53:00
12:53 PM,48.0,23.0,37,29.98,10.0,WSW,6.9,17.3,N/A,,Mostly Cloudy,250,2012-10-07 17:53:00
1:53 PM,48.9,21.0,33,29.95,10.0,SSW,12.7,23.0,N/A,,Clear,210,2012-10-07 18:53:00
2:53 PM,51.1,18.0,27,29.93,10.0,WSW,12.7,24.2,N/A,,Partly Cloudy,240,2012-10-07 19:53:00
3:53 PM,50.0,19.0,29,29.91,10.0,SW,9.2,18.4,N/A,,Partly Cloudy,230,2012-10-07 20:53:00
4:53 PM,48.0,19.9,33,29.91,10.0,SW,9.2,18.4,N/A,,Clear,220,2012-10-07 21:53:00
5:53 PM,48.0,19.0,32,29.90,10.0,Variable,6.9,-,N/A,,Clear,0,2012-10-07 22:53:00
6:53 PM,43.0,18.0,37,29.90,10.0,South,3.5,-,N/A,,Clear,180,2012-10-07 23:53:00
7:53 PM,37.0,19.0,48,29.90,10.0,South,3.5,-,N/A,,Clear,170,2012-10-08 00:53:00
8:53 PM,37.9,19.0,47,29.89,10.0,South,3.5,-,N/A,,Mostly Cloudy,180,2012-10-08 01:53:00
9:53 PM,39.0,18.0,43,29.87,10.0,South,3.5,-,N/A,,Overcast,170,2012-10-08 02:53:00
10:53 PM,37.0,18.0,46,29.85,10.0,Calm,Calm,-,N/A,,Overcast,0,2012-10-08 03:53:00
11:53 PM,33.1,18.0,54,29.84,10.0,Calm,Calm,-,N/A,,Partly Cloudy,0,2012-10-08 04:53:00